Hourly Data Report for October 05, 2015

All times are specified in Local Standard Time (LST). Add 1 hour to adjust for Daylight Saving Time where and when it is observed.

CHARLOTTETOWN A
PRINCE EDWARD ISLAND

46°17'21.000" N
63°07'09.000" W
48.50 m
8300301
71706
YYG

Download Data

Hourly Data (October 2015)
Hourly Data Report for October 5, 2015
Temp Definition
°C
Dew Point Temp Definition
°C
Rel Hum Definition
%
Wind Dir Definition
10's deg

Wind Spd Definition
km/h
Visibility Definition
km
Stn Press Definition
kPa
Hmdx Definition


Wind Chill Definition


Weather Definition


TIME
00:00 Legend Double Dagger 3.5 3.2 98 36 2 24.1 102.14     LegendNANA
01:00 Legend Double Dagger 2.7 2.4 98 36 4 24.1 102.12     LegendNANA
02:00 Legend Double Dagger 3.6 3.5 99 34 6 24.1 102.14     Mostly Cloudy
03:00 Legend Double Dagger 3.2 3.1 99 33 5 24.1 102.14     LegendNANA
04:00 Legend Double Dagger 4.2 4.1 99 36 1 24.1 102.10     LegendNANA
05:00 Legend Double Dagger 5.3 5.2 99 23 4 16.1 102.10     Mostly Cloudy
06:00 Legend Double Dagger 4.5 4.4 99 20 5 24.1 102.09     LegendNANA
07:00 Legend Double Dagger 3.9 3.8 99 7 4 0.4 102.11     Fog
08:00 Legend Double Dagger 9.8 9.8 100 4 5 12.9 102.06     Mostly Cloudy
09:00 Legend Double Dagger 11.7 10.3 91 2 4 24.1 102.01     LegendNANA
10:00 Legend Double Dagger 12.8 8.1 73 12 7 24.1 101.94     LegendNANA
11:00 Legend Double Dagger 14.3 9.4 72 12 7 24.1 101.89     Mostly Cloudy
12:00 Legend Double Dagger 14.6 9.2 70 15 17 24.1 101.89     LegendNANA
13:00 Legend Double Dagger 14.8 8.1 64 18 15 24.1 101.83     LegendNANA
14:00 Legend Double Dagger 14.9 7.5 61 17 9 24.1 101.71     Mostly Cloudy
15:00 Legend Double Dagger 15.0 8.3 64 18 9 24.1 101.64     LegendNANA
16:00 Legend Double Dagger 15.1 8.4 64 21 4 24.1 101.59     LegendNANA
17:00 Legend Double Dagger 14.6 8.8 68 36 2 24.1 101.54     Mostly Cloudy
18:00 Legend Double Dagger 11.1 9.7 91 36 1 24.1 101.50     LegendNANA
19:00 Legend Double Dagger 10.0 8.5 90 36 3 24.1 101.49     LegendNANA
20:00 Legend Double Dagger 9.6 9.0 96 10 7 24.1 101.47     Mostly Cloudy
21:00 Legend Double Dagger 9.8 9.0 95 14 9 24.1 101.44     LegendNANA
22:00 Legend Double Dagger 10.3 9.5 95 15 10 24.1 101.38     LegendNANA
23:00 Legend Double Dagger 10.5 10.1 97 17 3 24.1 101.37     Mostly Cloudy

Notes on Data Quality.

Legend

  • E = Estimated
  • M = Missing
  • NA = Not Available
  • ‡ = Partner data that is not subject to review by the National Climate Archives
Date modified: